User: anonymous   Login
Location: Unspecified
(0.0000°N, 0.0000°E)
Time: 10:14:29
(UTC+00:00)
Language:

COSMOS-2409 - Orbit

View from above orbital plane
View from above orbital plane
View from above satellite
View from above satellite

Ground track
Ground track

The orbit data is extracted from the following two-line orbital elements,

1 28420U 04037B   17080.84573236 +.00000002 +00000-0 -57944-4 0  9990
2 28420 082.4818 281.3195 0014128 109.1552 251.1058 12.45269640567837
Epoch (UTC): 21 March 2017 20:17:51
Eccentricity: 0.0014128
inclination: 82.4818°
perigee height: 1473 km
apogee height: 1495 km
right ascension of ascending node: 281.3195°
argument of perigee: 109.1552°
revolutions per day: 12.45269640
mean anomaly at epoch: 251.1058°
orbit number at epoch: 56783

The dashed part of the orbit path shows where the satellite is in the earth's shadow,  

DLR